[[{"header":{"parameterUnit":"m.s-1","parameterCategory":1,"la1":30.2991,"la2":30.254,"lo1":-89.0895,"lo2":-89.0444,"dy":0.0017,"dx":0.0017,"nx":28,"ny":28,"refTime":"2023-08-21T09:00:00:Z","depth":0,"parameterNumber":2,"parameterNumberName":"U-component_of_WINDS"},"data":[0,0,0,0,0,0,0,0,0,0,0,0,0,0,0,0,0,0,0,0,0,0,0,0,0,0,0,0,0,0,0,0,0,0,0,0,0,0,0,0,0,0,0,0,0,0,0,0,0,0,0,0,0,0,0,0,0,0,-5.2103,-5.2104,0,-5.2146,-5.2146,-5.2146,-5.205,-5.2047,-5.2044,-5.2041,-5.2082,-5.2086,-5.2089,0,0,0,0,0,0,0,0,0,0,0,0,0,-5.1937,-5.194,-5.2103,-5.2104,-5.2104,-5.2145,-5.2146,-5.2147,-5.2051,-5.2047,-5.2043,-5.204,-5.208,-5.2085,-5.209,0,0,0,0,0,0,0,0,0,0,0,0,0,-5.1997,-5.1941,-5.2103,-5.2061,-5.2058,-5.2145,-5.2146,-5.2147,-5.2052,-5.2047,-5.2042,-5.2038,-5.2079,-5.2085,-5.209,-5.2219,0,0,-5.2109,-5.2111,0,0,0,0,0,0,0,0,-5.1994,-5.2003,-5.2067,-5.2065,-5.2061,-5.2088,-5.2102,-5.2171,-5.2053,-5.2054,-5.2041,-5.2036,-5.2087,-5.2092,-5.211,-5.2221,-5.2223,-5.2109,-5.2113,-5.2115,-5.2117,0,0,0,0,0,0,0,-5.199,-5.2001,-5.212,-5.2068,-5.2064,-5.204,-5.2043,-5.2115,-5.2096,-5.2054,-5.2047,-5.2053,-5.2085,-5.2105,-5.211,-5.2223,-5.2109,-5.2114,-5.2118,-5.212,-5.244,-5.2445,0,0,0,0,0,0,-5.1991,-5.1998,-5.2118,-5.2121,-5.2015,-5.2047,-5.205,-5.2084,-5.2095,-5.2092,-5.2057,-5.2048,-5.2097,-5.2104,-5.2112,-5.2261,-5.2115,-5.2121,-5.2124,-5.2435,-5.2441,-5.2447,0,0,0,0,0,0,-5.1988,-5.2003,-5.2117,-5.2058,-5.207,-5.2054,-5.2093,-5.2087,-5.2107,-5.2098,-5.2093,-5.2081,-5.2094,-5.2103,-5.2193,-5.2261,-5.2123,-5.2129,-5.2429,-5.2437,-5.2444,-5.2562,0,0,0,0,0,0,-5.1984,-5.2002,-5.2051,-5.206,-5.2074,-5.2199,-5.2097,-5.2091,-5.2118,-5.2107,-5.2119,-5.2116,-5.2091,-5.2185,-5.2199,-5.2267,-5.2133,-5.2423,-5.2433,-5.2442,-5.2552,-5.2573,-5.2591,0,0,0,0,0,-5.1978,-5.2083,-5.2054,-5.207,-5.2135,-5.2203,-5.2211,-5.218,-5.2124,-5.2172,-5.2166,-5.2116,-5.2252,-5.2195,-5.221,-5.2281,-5.2419,-5.243,-5.2441,-5.2543,-5.2569,-5.259,0,0,0,0,0,0,-5.2082,-5.2083,-5.2052,-5.2163,-5.2183,-5.2186,-5.2247,-5.2208,-5.2244,-5.2232,-5.2191,-5.2195,-5.2292,-5.2296,-5.2231,-5.2405,-5.2326,-5.234,-5.2398,-5.2422,-5.2441,-5.2437,-5.2138,0,0,0,0,0,-5.2118,-5.2174,-5.2171,-5.2269,-5.2282,-5.2263,-5.2291,-5.2266,-5.2285,-5.2293,-5.2293,-5.2314,-5.236,-5.2392,-5.2435,-5.2553,-5.2553,-5.2609,-5.2629,-5.2645,-5.2657,-5.2718,-5.2742,-5.2483,-5.2483,-5.2483,0,0,-5.2193,-5.22,-5.2238,-5.2291,-5.2304,-5.2361,-5.2271,-5.2335,-5.2377,-5.2302,-5.2386,-5.2388,-5.2408,-5.2512,-5.2558,-5.2518,-5.2729,-5.2659,-5.2671,-5.2675,-5.2732,-5.2756,-5.2778,-5.2491,-5.2489,-5.2488,0,0,-5.2357,-5.237,-5.2452,-5.2467,-5.2488,-5.2475,-5.2496,-5.2505,-5.2503,-5.2587,-5.2532,-5.2581,-5.2664,-5.2679,-5.2698,-5.287,-5.2824,-5.2885,-5.2984,-5.3044,-5.3065,-5.3082,-5.3141,-5.3163,-5.2898,-5.2899,-5.2899,0,-5.2446,-5.2531,-5.2499,-5.2567,-5.2591,-5.2528,-5.261,-5.2626,-5.2661,-5.2678,-5.2634,-5.2735,-5.2744,-5.285,-5.2892,-5.2911,-5.293,-5.2882,-5.3065,-5.3082,-5.3098,-5.3154,-5.3177,-5.2906,-5.2905,-5.2904,-5.2903,0,-5.2639,-5.2699,-5.2763,-5.2798,-5.283,-5.2905,-5.2882,-5.2918,-5.2891,-5.2882,-5.2968,-5.2977,-5.302,-5.3044,-5.3018,-5.3147,-5.3121,-5.3072,-5.299,-5.3131,-5.3182,-5.3203,-5.2916,-5.2913,-5.2911,-5.2909,0,0,-5.2868,-5.2885,-5.2909,-5.2923,-5.2943,-5.2988,-5.306,-5.3103,-5.3133,-5.316,-5.3217,-5.3289,-5.3244,-5.3265,-5.324,-5.3294,-5.3426,-5.3237,-5.3237,-5.327,-5.3566,-5.3601,-5.3627,-5.3398,-5.3402,-5.3405,-5.3564,0,-5.3029,-5.3152,-5.3125,-5.3247,-5.33,-5.3242,-5.3304,-5.3323,-5.3317,-5.3361,-5.3355,-5.3405,-5.3343,-5.3355,-5.3405,-5.34,-5.3485,-5.3388,-5.3449,-5.3451,-5.3443,-5.3654,-5.3691,-5.3841,-5.3584,-5.3588,-5.359,0,-5.3232,-5.3266,-5.3393,-5.3404,-5.3425,-5.3482,-5.3518,-5.3562,-5.3581,-5.3573,-5.3599,-5.3563,-5.3633,-5.3554,-5.3649,-5.3584,-5.3608,-5.3609,-5.3614,-5.3616,-5.3527,-5.3659,-5.3888,-5.391,-5.3622,-5.3619,-5.3617,0,-5.3383,-5.3461,-5.3547,-5.3562,-5.3577,-5.3617,-5.3625,-5.364,-5.3668,-5.37,-5.3717,-5.3757,-5.3778,-5.381,-5.3786,-5.3731,-5.3884,-5.3804,-5.3878,-5.3878,-5.391,-5.3908,-5.4143,-5.3931,-5.393,-5.393,-5.3929,0,-5.3563,-5.3643,-5.3615,-5.3667,-5.3754,-5.3722,-5.3809,-5.381,-5.3824,-5.3875,-5.3827,-5.3876,-5.3843,-5.3888,-5.387,-5.395,-5.3961,-5.3955,-5.3949,-5.3958,-5.3958,-5.3971,-5.3958,-5.3936,-5.3935,-5.3933,-5.3932,0,-5.3745,-5.373,-5.3819,-5.3826,-5.383,-5.3894,-5.3899,-5.3947,-5.3939,-5.4004,-5.4017,-5.4003,-5.4055,-5.4035,-5.4089,-5.4077,-5.4179,-5.416,-5.4172,-5.4166,-5.4241,-5.4233,-5.449,-5.4521,-5.4291,-5.4293,-5.4295,0,-5.386,-5.392,-5.3934,-5.3964,-5.3976,-5.4027,-5.4054,-5.4026,-5.4057,-5.4083,-5.4128,-5.4175,-5.4211,-5.4296,-5.429,-5.4331,-5.4311,-5.4399,-5.4317,-5.4324,-5.4309,-5.4305,-5.431,-5.4414,-5.4417,-5.4419,-5.4421,0,-5.4064,-5.4054,-5.4096,-5.4137,-5.4171,-5.4201,-5.4227,-5.4255,-5.4228,-5.4265,-5.4317,-5.4345,-5.44,-5.4447,-5.4484,-5.4491,-5.4451,-5.4447,-5.4466,-5.4474,-5.4477,-5.4474,-5.4214,-5.444,-5.4438,-5.4437,-5.4436,-5.4435,-5.4214,-5.4264,-5.4281,-5.433,-5.4347,-5.4372,-5.4417,-5.4415,-5.4458,-5.4501,-5.4482,-5.4542,-5.4559,-5.4604,-5.4617,-5.4663,-5.4628,-5.4656,-5.4663,-5.467,-5.4678,-5.4473,-5.467,-5.4669,-5.4668,-5.4668,-5.4668,0,-5.4414,-5.4422,-5.4468,-5.4505,-5.4543,-5.4505,-5.4531,-5.4565,-5.4618,-5.4638,-5.4675,-5.4734,-5.478,-5.4779,-5.482,-5.4857,-5.484,-5.4869,-5.4864,-5.4866,-5.4707,-5.4686,-5.4882,-5.4882,-5.4882,-5.4882,-5.4882,-5.4882,-5.4522,-5.4603,-5.4595,-5.4684,-5.4692,-5.4751,-5.4769,-5.4792,-5.4807,-5.4876,-5.4913,-5.4913,-5.4924,-5.4966,-5.5006,-5.5004,-5.502,-5.5056,-5.5047,-5.4899,-5.4877,-5.4857,-5.4836,-5.506,-5.5061,-5.5201,-5.5202,-5.5203]},{"header":{"parameterUnit":"m.s-1","parameterCategory":1,"la1":30.2991,"la2":30.254,"lo1":-89.0895,"lo2":-89.0444,"dy":0.0017,"dx":0.0017,"nx":28,"ny":28,"refTime":"2023-08-21T09:00:00:Z","depth":0,"parameterNumber":3,"parameterNumberName":"V-component_of_WINDS"},"data":[0,0,0,0,0,0,0,0,0,0,0,0,0,0,0,0,0,0,0,0,0,0,0,0,0,0,0,0,0,0,0,0,0,0,0,0,0,0,0,0,0,0,0,0,0,0,0,0,0,0,0,0,0,0,0,0,0,0,1.5338,1.5339,0,1.5352,1.5353,1.5353,1.5344,1.5344,1.5343,1.5343,1.5355,1.5356,1.5356,0,0,0,0,0,0,0,0,0,0,0,0,0,1.5304,1.5305,1.5338,1.5339,1.5339,1.5352,1.5353,1.5353,1.5344,1.5344,1.5343,1.5343,1.5355,1.5356,1.5357,0,0,0,0,0,0,0,0,0,0,0,0,0,1.5318,1.5305,1.5338,1.5336,1.5336,1.5352,1.5353,1.5353,1.5344,1.5344,1.5343,1.5343,1.5355,1.5356,1.5357,1.5375,0,0,1.536,1.536,0,0,0,0,0,0,0,0,1.5318,1.532,1.5336,1.5336,1.5336,1.5346,1.5345,1.536,1.5344,1.5341,1.5343,1.5342,1.5352,1.5354,1.5357,1.5376,1.5376,1.536,1.5361,1.5361,1.5361,0,0,0,0,0,0,0,1.5317,1.5319,1.5344,1.5337,1.5337,1.5334,1.5336,1.5348,1.535,1.5341,1.5341,1.5343,1.5352,1.5356,1.5358,1.5376,1.536,1.5361,1.5361,1.5362,1.5412,1.5413,0,0,0,0,0,0,1.5316,1.5318,1.5343,1.5344,1.5325,1.5336,1.5337,1.5343,1.535,1.535,1.5343,1.5342,1.5355,1.5356,1.5358,1.5381,1.5361,1.5362,1.5363,1.5412,1.5412,1.5413,0,0,0,0,0,0,1.5315,1.5318,1.5343,1.5331,1.5334,1.5337,1.5344,1.5344,1.5348,1.5351,1.5351,1.5347,1.5355,1.5357,1.5371,1.5381,1.5362,1.5363,1.5411,1.5412,1.5413,1.5426,0,0,0,0,0,0,1.5314,1.5318,1.5325,1.5331,1.5335,1.5356,1.5345,1.5345,1.535,1.5349,1.5355,1.5355,1.5354,1.537,1.5373,1.5382,1.5364,1.541,1.5411,1.5412,1.5424,1.5427,1.5429,0,0,0,0,0,1.5313,1.5327,1.5325,1.5328,1.5344,1.5357,1.5359,1.5358,1.5351,1.5358,1.5361,1.5355,1.538,1.5372,1.5374,1.5384,1.5409,1.5411,1.5412,1.5423,1.5427,1.5429,0,0,0,0,0,0,1.532,1.5328,1.5326,1.5343,1.5349,1.5355,1.5364,1.5361,1.5369,1.5367,1.5366,1.5367,1.5383,1.5385,1.5376,1.5404,1.5393,1.5396,1.5401,1.5404,1.5406,1.5405,1.5365,0,0,0,0,0,1.5324,1.5334,1.534,1.5355,1.5358,1.5361,1.5366,1.5366,1.5372,1.5374,1.5378,1.5384,1.5393,1.5399,1.5407,1.5426,1.5427,1.5434,1.5437,1.5439,1.544,1.5451,1.5454,1.5418,1.5418,1.5418,0,0,1.5331,1.5337,1.5343,1.5356,1.5361,1.5372,1.5363,1.5374,1.5382,1.5376,1.539,1.5393,1.54,1.5417,1.5424,1.5419,1.5451,1.5441,1.5442,1.5442,1.5453,1.5456,1.5459,1.5419,1.5419,1.5419,0,0,1.535,1.5355,1.5368,1.5374,1.5383,1.5385,1.5388,1.5395,1.5397,1.5412,1.5408,1.5417,1.5433,1.5439,1.5443,1.5468,1.5463,1.5471,1.5483,1.5493,1.5496,1.5498,1.5507,1.551,1.5472,1.5472,1.5472,0,1.5357,1.5374,1.5375,1.5387,1.5393,1.539,1.5403,1.5409,1.5419,1.5424,1.5419,1.544,1.5444,1.5462,1.5469,1.5473,1.5476,1.5469,1.5495,1.5498,1.55,1.5508,1.5511,1.5473,1.5473,1.5473,1.5473,0,1.5383,1.5395,1.5404,1.5416,1.5423,1.5436,1.5439,1.5447,1.5446,1.5449,1.5465,1.547,1.5481,1.5485,1.5484,1.5504,1.5501,1.5496,1.5485,1.5504,1.5512,1.5515,1.5474,1.5474,1.5474,1.5474,0,0,1.5403,1.5418,1.5421,1.5427,1.5438,1.5447,1.546,1.5471,1.5478,1.5486,1.5497,1.5512,1.5508,1.5514,1.5513,1.5523,1.5542,1.5517,1.5517,1.5521,1.5564,1.5567,1.5571,1.554,1.554,1.5541,1.5564,0,1.5423,1.5446,1.5449,1.547,1.5481,1.5479,1.5491,1.5499,1.5503,1.5512,1.5516,1.5527,1.5521,1.5524,1.5534,1.5537,1.555,1.5536,1.5549,1.555,1.5546,1.5575,1.5577,1.5598,1.5567,1.5567,1.5567,0,1.5447,1.5458,1.548,1.5491,1.5495,1.5506,1.5517,1.5527,1.5536,1.5538,1.5546,1.5545,1.5559,1.555,1.5569,1.556,1.5566,1.5569,1.557,1.5569,1.5559,1.5575,1.5605,1.5608,1.5572,1.5572,1.5571,0,1.546,1.5479,1.5496,1.5501,1.5514,1.5521,1.5527,1.5536,1.5543,1.5553,1.5558,1.557,1.5575,1.5585,1.5587,1.558,1.5606,1.5597,1.5608,1.5608,1.5612,1.5611,1.5643,1.5618,1.5618,1.5618,1.5618,0,1.548,1.5493,1.5502,1.5511,1.5527,1.5531,1.5546,1.5551,1.556,1.5571,1.5571,1.5581,1.5584,1.5595,1.5597,1.5613,1.5616,1.5618,1.5618,1.5617,1.5617,1.562,1.5618,1.5619,1.5618,1.5618,1.5618,0,1.5495,1.5502,1.5519,1.5531,1.5534,1.5545,1.5555,1.5565,1.557,1.5584,1.5587,1.5594,1.5607,1.5612,1.5627,1.5628,1.5647,1.5646,1.5644,1.5643,1.5654,1.5652,1.5687,1.5692,1.5665,1.5665,1.5665,0,1.5507,1.5518,1.5532,1.5539,1.5546,1.5558,1.5566,1.5571,1.558,1.5593,1.5601,1.5614,1.5625,1.5646,1.5652,1.5664,1.5663,1.5675,1.5664,1.5664,1.5662,1.5661,1.5662,1.5676,1.5676,1.5676,1.5676,0,1.5527,1.553,1.5542,1.5556,1.5566,1.5577,1.5587,1.5594,1.56,1.561,1.5624,1.5632,1.5649,1.5662,1.5675,1.5681,1.568,1.568,1.5683,1.5681,1.5679,1.568,1.5648,1.5678,1.5678,1.5678,1.5678,1.5678,1.5541,1.5551,1.5563,1.5576,1.5585,1.5596,1.5606,1.5613,1.5625,1.5639,1.5642,1.5657,1.5668,1.5685,1.5692,1.5703,1.57,1.5704,1.5705,1.5706,1.5707,1.5679,1.5706,1.5706,1.5706,1.5706,1.5706,0,1.556,1.5569,1.5582,1.5597,1.5608,1.5608,1.5621,1.563,1.5643,1.5654,1.5665,1.5682,1.5695,1.5704,1.5717,1.5725,1.5725,1.5728,1.5727,1.5729,1.5709,1.5705,1.5728,1.5728,1.5728,1.5728,1.5728,1.5728,1.5572,1.5589,1.5594,1.5616,1.5624,1.564,1.5647,1.5656,1.5665,1.5684,1.5696,1.5702,1.5712,1.5727,1.5739,1.5741,1.5746,1.5749,1.5751,1.5732,1.573,1.5727,1.5723,1.5751,1.5751,1.5769,1.577,1.577]}]]